| time (UTC) | temp F | wind direction | speed MPH | gust MPH | rain 1hr in | rain 24hr in | rain mn in | humidity % | barometer mb |
| 20260510081559 | 42 | 0 | 0.0 | 0.0 | 0.00 | 0.02 | 0.00 | 58 | 1016.3 |
| 20260510074559 | 43 | 0 | 0.0 | 1.0 | 0.00 | 0.02 | 0.00 | 58 | 1016.2 |
| 20260510073105 | 43 | 0 | 0.0 | 1.0 | 0.00 | 0.02 | 0.00 | 57 | 1016.1 |
| 20260510071556 | 43 | 254 | 0.0 | 3.0 | 0.00 | 0.02 | 0.00 | 57 | 1016.0 |
| 20260510070059 | 43 | 0 | 0.0 | 0.0 | 0.00 | 0.02 | 0.00 | 56 | 1015.9 |
| 20260510064558 | 43 | 238 | 0.0 | 1.0 | 0.00 | 0.02 | 0.00 | 56 | 1015.9 |
| 20260510063058 | 44 | 0 | 0.0 | 2.0 | 0.00 | 0.02 | 0.00 | 53 | 1015.8 |
| 20260510061600 | 44 | 0 | 0.0 | 1.0 | 0.00 | 0.02 | 0.00 | 52 | 1015.7 |
| 20260510060058 | 45 | 0 | 0.0 | 1.0 | 0.00 | 0.02 | 0.00 | 51 | 1015.7 |
| 20260510054558 | 45 | 0 | 0.0 | 1.0 | 0.00 | 0.02 | 0.00 | 50 | 1015.6 |
| 20260510053107 | 46 | 0 | 0.0 | 2.0 | 0.00 | 0.02 | 0.00 | 50 | 1015.7 |
| 20260510051601 | 46 | 242 | 0.0 | 2.0 | 0.00 | 0.02 | 0.00 | 50 | 1015.6 |
| 20260510050059 | 47 | 263 | 0.0 | 1.0 | 0.00 | 0.02 | 0.00 | 49 | 1015.6 |
| 20260510044600 | 47 | 0 | 0.0 | 1.0 | 0.00 | 0.02 | 0.02 | 48 | 1015.4 |
| 20260510043111 | 48 | 0 | 0.0 | 2.0 | 0.00 | 0.02 | 0.02 | 47 | 1015.4 |
| 20260510041558 | 48 | 0 | 0.0 | 1.0 | 0.00 | 0.02 | 0.02 | 45 | 1015.3 |
| 20260510040103 | 48 | 0 | 0.0 | 1.0 | 0.00 | 0.02 | 0.02 | 45 | 1015.2 |
| 20260510034601 | 48 | 273 | 0.0 | 2.0 | 0.00 | 0.02 | 0.02 | 45 | 1015.1 |
| 20260510033139 | 49 | 0 | 0.0 | 1.0 | 0.00 | 0.02 | 0.02 | 44 | 1015.0 |
| 20260510031622 | 49 | 0 | 0.0 | 1.0 | 0.00 | 0.02 | 0.02 | 43 | 1015.0 |
| 20260510030103 | 50 | 0 | 0.0 | 1.0 | 0.00 | 0.02 | 0.02 | 41 | 1014.8 |
| 20260510024557 | 50 | 0 | 0.0 | 2.0 | 0.00 | 0.02 | 0.02 | 40 | 1014.6 |
| 20260510023058 | 51 | 0 | 1.0 | 3.0 | 0.00 | 0.02 | 0.02 | 39 | 1014.5 |
| 20260510021601 | 52 | 0 | 0.0 | 5.0 | 0.00 | 0.02 | 0.02 | 38 | 1014.2 |
| 20260510020058 | 52 | 313 | 0.0 | 6.0 | 0.00 | 0.02 | 0.02 | 37 | 1013.8 |
| 20260510014559 | 53 | 272 | 1.0 | 7.0 | 0.00 | 0.02 | 0.02 | 36 | 1013.7 |
| 20260510013103 | 54 | 262 | 2.0 | 9.0 | 0.00 | 0.02 | 0.02 | 35 | 1013.3 |
| 20260510011601 | 54 | 12 | 2.0 | 15.0 | 0.00 | 0.02 | 0.02 | 35 | 1013.0 |
| 20260510010105 | 55 | 269 | 2.0 | 9.0 | 0.00 | 0.02 | 0.02 | 34 | 1012.9 |
| 20260510004600 | 55 | 269 | 4.0 | 11.0 | 0.00 | 0.02 | 0.02 | 33 | 1012.6 |
| 20260510003101 | 56 | 275 | 4.0 | 10.0 | 0.00 | 0.02 | 0.02 | 32 | 1012.4 |
| 20260510001600 | 56 | 304 | 3.0 | 12.0 | 0.00 | 0.02 | 0.02 | 33 | 1012.2 |
| 20260510000108 | 57 | 5 | 3.0 | 10.0 | 0.00 | 0.02 | 0.02 | 33 | 1012.0 |
| 20260509234603 | 58 | 283 | 5.0 | 18.0 | 0.00 | 0.02 | 0.02 | 31 | 1011.8 |
| 20260509233101 | 58 | 88 | 4.0 | 12.0 | 0.00 | 0.02 | 0.02 | 32 | 1011.7 |
| 20260509231559 | 59 | 316 | 6.0 | 17.0 | 0.00 | 0.02 | 0.02 | 30 | 1011.5 |
| 20260509230100 | 59 | 290 | 4.0 | 14.0 | 0.00 | 0.02 | 0.02 | 31 | 1011.3 |
| 20260509224600 | 60 | 279 | 3.0 | 10.0 | 0.00 | 0.02 | 0.02 | 31 | 1011.2 |
| 20260509223105 | 59 | 314 | 4.0 | 15.0 | 0.00 | 0.02 | 0.02 | 32 | 1011.3 |
| 20260509221600 | 60 | 269 | 4.0 | 13.0 | 0.00 | 0.02 | 0.02 | 31 | 1011.1 |
| 20260509214616 | 61 | 308 | 5.0 | 13.0 | 0.00 | 0.02 | 0.02 | 30 | 1011.0 |
| 20260509213056 | 61 | 294 | 4.0 | 11.0 | 0.00 | 0.02 | 0.02 | 31 | 1010.8 |
| 20260509211602 | 60 | 261 | 5.0 | 13.0 | 0.00 | 0.02 | 0.02 | 32 | 1010.9 |
| 20260509210108 | 61 | 352 | 5.0 | 12.0 | 0.00 | 0.02 | 0.02 | 31 | 1010.7 |
| 20260509204601 | 61 | 323 | 4.0 | 13.0 | 0.00 | 0.02 | 0.02 | 34 | 1010.7 |
| 20260509203059 | 61 | 286 | 6.0 | 14.0 | 0.00 | 0.02 | 0.02 | 30 | 1010.7 |
| 20260509201608 | 61 | 46 | 3.0 | 10.0 | 0.00 | 0.02 | 0.02 | 33 | 1010.6 |
| 20260509200109 | 61 | 360 | 5.0 | 14.0 | 0.00 | 0.02 | 0.02 | 34 | 1010.6 |
| 20260509194602 | 60 | 292 | 3.0 | 11.0 | 0.00 | 0.02 | 0.02 | 36 | 1010.4 |
| 20260509193101 | 60 | 318 | 5.0 | 12.0 | 0.00 | 0.02 | 0.02 | 34 | 1010.3 |
| 20260509191557 | 60 | 350 | 5.0 | 13.0 | 0.00 | 0.02 | 0.02 | 34 | 1010.4 |
| 20260509184606 | 59 | 304 | 3.0 | 12.0 | 0.00 | 0.02 | 0.02 | 37 | 1009.9 |
| 20260509183059 | 58 | 355 | 2.0 | 13.0 | 0.00 | 0.02 | 0.02 | 39 | 1009.8 |
| 20260509181621 | 58 | 344 | 6.0 | 12.0 | 0.00 | 0.02 | 0.02 | 35 | 1009.9 |
| 20260509180057 | 57 | 270 | 6.0 | 12.0 | 0.00 | 0.02 | 0.02 | 37 | 1009.8 |
| 20260509174559 | 57 | 329 | 6.0 | 13.0 | 0.00 | 0.02 | 0.02 | 37 | 1009.8 |
| 20260509173105 | 57 | 335 | 6.0 | 15.0 | 0.00 | 0.02 | 0.02 | 35 | 1009.7 |
| 20260509171558 | 57 | 300 | 5.0 | 14.0 | 0.00 | 0.02 | 0.02 | 36 | 1009.6 |
| 20260509170058 | 56 | 279 | 4.0 | 13.0 | 0.00 | 0.02 | 0.02 | 39 | 1009.6 |
| 20260509164559 | 56 | 11 | 4.0 | 14.0 | 0.00 | 0.02 | 0.02 | 40 | 1009.4 |
| 20260509163103 | 55 | 281 | 4.0 | 13.0 | 0.00 | 0.02 | 0.02 | 43 | 1009.2 |
| 20260509161600 | 54 | 349 | 4.0 | 12.0 | 0.00 | 0.02 | 0.02 | 44 | 1009.1 |
| 20260509160059 | 53 | 350 | 5.0 | 13.0 | 0.00 | 0.02 | 0.02 | 43 | 1008.9 |
| 20260509154600 | 52 | 49 | 6.0 | 14.0 | 0.00 | 0.02 | 0.02 | 49 | 1008.7 |
| 20260509153057 | 52 | 33 | 6.0 | 14.0 | 0.00 | 0.02 | 0.02 | 49 | 1008.6 |
| 20260509151605 | 51 | 302 | 4.0 | 12.0 | 0.00 | 0.02 | 0.02 | 52 | 1008.3 |
| 20260509150058 | 50 | 264 | 4.0 | 13.0 | 0.00 | 0.02 | 0.02 | 54 | 1008.1 |
| 20260509144610 | 50 | 26 | 4.0 | 11.0 | 0.00 | 0.02 | 0.02 | 57 | 1008.0 |
| 20260509143122 | 50 | 360 | 3.0 | 11.0 | 0.00 | 0.02 | 0.02 | 61 | 1007.8 |
| 20260509141557 | 49 | 300 | 4.0 | 10.0 | 0.00 | 0.02 | 0.02 | 63 | 1007.6 |
| 20260509140106 | 49 | 318 | 6.0 | 13.0 | 0.00 | 0.02 | 0.02 | 65 | 1007.5 |
| 20260509134613 | 48 | 286 | 2.0 | 11.0 | 0.00 | 0.02 | 0.02 | 71 | 1007.0 |
| 20260509133057 | 47 | 328 | 5.0 | 10.0 | 0.00 | 0.02 | 0.02 | 73 | 1007.0 |
| 20260509131558 | 47 | 10 | 2.0 | 12.0 | 0.00 | 0.02 | 0.02 | 77 | 1006.7 |
| 20260509130101 | 46 | 5 | 2.0 | 12.0 | 0.00 | 0.02 | 0.02 | 80 | 1006.5 |
| 20260509124557 | 45 | 355 | 3.0 | 8.0 | 0.00 | 0.02 | 0.02 | 85 | 1006.2 |
| 20260509123130 | 45 | 28 | 2.0 | 8.0 | 0.00 | 0.02 | 0.02 | 87 | 1006.0 |
| 20260509121612 | 45 | 321 | 1.0 | 7.0 | 0.00 | 0.02 | 0.02 | 89 | 1005.8 |
| 20260509120113 | 45 | 346 | 1.0 | 7.0 | 0.00 | 0.02 | 0.02 | 89 | 1005.4 |
| 20260509114603 | 45 | 319 | 1.0 | 6.0 | 0.00 | 0.02 | 0.02 | 89 | 1005.1 |
| 20260509113101 | 45 | 321 | 1.0 | 4.0 | 0.00 | 0.02 | 0.02 | 89 | 1004.8 |
| 20260509111605 | 45 | 306 | 1.0 | 6.0 | 0.00 | 0.02 | 0.02 | 89 | 1004.6 |
| 20260509110107 | 46 | 322 | 1.0 | 6.0 | 0.00 | 0.02 | 0.02 | 89 | 1004.3 |
| 20260509104558 | 46 | 289 | 2.0 | 7.0 | 0.00 | 0.02 | 0.02 | 88 | 1004.1 |
| 20260509103104 | 47 | 0 | 1.0 | 5.0 | 0.00 | 0.02 | 0.02 | 88 | 1003.9 |
| 20260509101624 | 47 | 318 | 0.0 | 3.0 | 0.00 | 0.02 | 0.02 | 87 | 1003.6 |
| 20260509100059 | 47 | 328 | 0.0 | 3.0 | 0.00 | 0.02 | 0.02 | 87 | 1003.4 |
| 20260509094603 | 47 | 0 | 0.0 | 2.0 | 0.01 | 0.02 | 0.02 | 86 | 1003.3 |
| 20260509093106 | 47 | 0 | 0.0 | 1.0 | 0.01 | 0.02 | 0.02 | 85 | 1003.2 |
| 20260509091603 | 47 | 0 | 0.0 | 1.0 | 0.01 | 0.02 | 0.02 | 85 | 1002.8 |
| 20260509084602 | 48 | 0 | 0.0 | 1.0 | 0.01 | 0.01 | 0.01 | 84 | 1003.0 |
| 20260509083058 | 48 | 198 | 0.0 | 3.0 | 0.01 | 0.01 | 0.01 | 84 | 1002.7 |